Vertical_Velocity
-1 -1 -1 -1 -1 -1 -1 -1 -1 -2 -1 -1 -0 -0 0 -0 -0 -0 -0 -0 0 0 -0 -1 -1 -2 -2 -2 -2 -2 -1 -1 -1 -1 -2 -2 -2 -2 -2 -2 -2 -2 -2 -2 -3 -4 -3 6 10 8 1 -0 -2 -3 -4 -2 2 5 6 4 0 -2 -1 -1 -1 -1 -1 1 2 2 2 0 -2 -3 -3 -2 -1 -1 -2 -1 1 2 -2 -1 1 2 2 -1 -1 1 2 0 -3 -2 5 8 5 2 3 1 0 -1 -3
-1 -1 -1 -1 -2 -2 -1 -1 -2 -2 -1 -1 -0 0 0 -0 -0 -0 -0 0 1 1 -0 -1 -1 -1 -1 -2 -1 -1 -1 -1 -1 -1 -1 -1 -2 -2 -2 -2 -2 -2 -2 -2 -3 -3 -2 11 10 5 2 -0 -2 -3 -3 -1 0 1 -0 -2 -2 -1 -2 -0 1 1 -1 1 1 1 -1 -3 -5 -5 -3 -3 -1 1 -0 5 8 7 -0 1 4 4 -0 -0 3 7 10 7 2 -0 8 6 4 3 0 -0 -2 -2 -2
-1 -1 -1 -1 -1 -1 -1 -1 -1 -1 -1 -0 -0 -0 -0 -0 -0 -0 0 0 1 1 -0 -1 -1 -1 -1 -1 -1 -1 -1 -1 -1 -1 -1 -1 -1 -1 -1 -1 -1 -1 -2 -2 -4 -4 -1 7 8 6 3 0 -1 -0 0 2 3 2 -2 -3 -2 -0 1 1 1 1 -2 -0 0 -0 -2 -0 -2 -4 -1 -2 -2 -3 -3 2 6 7 5 12 12 6 -3 -1 1 5 14 10 4 1 5 3 3 2 -0 -2 -3 -2 -1
-1 -1 -1 -1 -1 -0 -1 -1 -1 -1 -1 -1 -1 -1 -1 -1 -0 -0 0 1 1 1 -0 -1 -1 -1 -1 -0 -0 -0 -0 -0 -0 -0 -0 -1 -1 -1 -1 -1 -1 -1 -1 -2 -5 -7 -3 1 4 5 1 1 1 0 1 3 2 0 -4 -4 -3 -2 -1 0 0 -0 -1 -2 -2 -1 -2 -1 -1 -3 -2 -2 -2 -3 -5 -3 1 4 7 12 8 1 -2 -1 -0 0 0 1 0 1 4 4 3 1 -2 -3 -2 -2 -2
-1 -2 -2 -1 -0 -0 -0 -1 -1 -1 -1 -1 -1 -1 -1 -1 -1 -0 -0 0 1 1 0 -0 -1 -1 -1 -0 0 0 -0 -0 -0 -0 -0 -1 -1 -1 -1 -1 -1 -1 -1 -1 -4 -4 2 2 3 3 0 1 1 -0 0 1 0 -2 -5 -4 -3 -2 -3 -2 -2 -1 -1 -1 -1 -1 -1 -1 -1 -2 -2 -2 -2 -2 -3 -3 -1 1 1 -0 -1 -1 -2 -2 -1 -0 -1 0 0 -1 1 2 1 -0 -2 -1 -2 -2 -2
-2 -2 -2 -1 -0 -0 -1 -1 -1 -1 -1 -1 -1 -2 -2 -1 -1 -1 -1 0 0 0 0 -0 -1 -1 -1 -0 0 0 0 0 -0 -0 -0 -0 -1 -1 -1 -1 -1 -1 -1 -2 -3 -0 8 8 4 -1 -0 0 -0 -1 -1 0 -0 -2 -4 -3 -3 -2 -3 -3 -3 -2 -2 -2 -2 -2 -1 -1 -1 -2 -2 -2 -2 -2 -3 -3 -1 0 1 0 -0 -1 -2 -2 -1 -1 -2 -0 -1 -1 -2 -1 -0 -1 -2 -1 -1 -2 -1
-2 -2 -2 -1 -1 -1 -1 -1 -1 -1 -1 -1 -2 -1 -1 -2 -2 -1 -0 0 -0 -0 0 -0 -1 -1 -1 -0 -0 0 0 0 0 0 0 -0 -1 -1 -1 -1 -1 -2 -1 -2 -3 -1 3 4 1 -2 -1 -1 -1 -1 -1 1 0 -2 -4 -3 -3 -3 -4 -3 -3 -2 -2 -2 -3 -2 -2 -1 -1 -1 -2 -2 -2 -2 -2 -4 -3 -1 0 -0 0 -0 -1 -2 -2 -2 -1 -1 -1 -1 -2 -2 -1 -1 -1 -1 -1 -2 -1
-2 -2 -2 -2 -2 -2 -2 -1 -1 -1 -2 -2 -2 -1 -1 -2 -2 -1 -1 -0 -1 -1 -1 -1 -1 -1 -1 -0 -0 -0 0 0 0 0 0 -0 -1 -1 -1 -1 -2 -2 -2 -2 -3 -4 -5 -2 -1 -2 -1 -2 -1 -0 2 3 2 -1 -3 -3 -3 -3 -3 -3 -2 -2 -3 -3 -3 -3 -2 -1 -1 -1 -2 -2 -3 -2 -2 -2 -3 -3 -2 -1 -1 -1 -1 -2 -3 -3 -2 -2 -1 -0 -0 -0 -0 -1 -1 -1 -1 -2 -1
-2 -2 -2 -2 -2 -2 -2 -1 -1 -1 -2 -2 -2 -1 -1 -1 -1 -1 -1 -1 -1 -1 -1 -1 -1 -1 -1 -0 -0 -0 -0 -0 -0 -0 -0 -0 -1 -1 -1 -1 -2 -2 -2 -2 -2 -3 -6 -3 -2 -1 -2 -2 -1 0 2 4 3 -1 -3 -2 -2 -2 -3 -3 -3 -3 -3 -2 -2 -2 -1 -1 -0 -1 -1 -2 -1 -1 -1 2 0 -2 -2 -1 -1 -1 -1 -2 -2 -1 -2 -3 -2 -1 -0 0 0 0 -0 -0 -0 -1 -1
-2 -2 -2 -2 -2 -2 -2 -1 -1 -1 -2 -2 -2 -1 -1 -1 -1 -1 -2 -1 -1 -1 -1 -1 -1 -1 -1 -1 -1 -1 -0 -0 -1 -1 -1 -1 -1 -1 -1 -1 -1 -2 -2 -1 -1 -2 -4 -4 -2 -1 -2 -2 -2 -1 0 3 1 -2 -3 -1 -1 -2 -2 -2 -2 -2 -3 -2 -2 -1 -1 -1 -0 0 -0 -2 -1 0 -0 2 2 0 -1 -2 -2 -1 -1 -1 -1 -1 -2 -2 -2 -2 -2 -1 0 1 0 0 0 -0 -1
-2 -2 -2 -2 -2 -2 -2 -1 -1 -1 -1 -2 -2 -1 -2 -1 -1 -1 -1 -1 -1 -1 -1 -1 -1 -1 -1 -1 -1 -1 -1 -1 -1 -1 -1 -1 -1 -1 -1 -1 -1 -1 -1 -1 -0 -1 -4 -3 -1 -1 -2 -1 -2 -2 0 2 -0 -3 -2 -1 -1 -1 -1 -2 -3 -3 -3 -2 -2 -2 -2 -1 -1 -0 -0 -0 -1 -1 -1 -0 -1 -2 -2 -2 -2 -2 -1 -1 -1 -2 -2 -2 -2 -2 -2 -1 -0 0 0 0 -0 -1 -2
-2 -2 -2 -2 -2 -2 -2 -1 -1 -1 -1 -2 -2 -2 -2 -2 -2 -2 -1 -1 -1 -2 -2 -1 -1 -1 -1 -1 -1 -1 -1 -1 -1 -1 -1 -1 -1 -1 -1 -1 -0 -0 -0 -0 -0 -2 -5 -1 0 0 -0 -1 -1 -1 1 0 -1 -3 -1 -1 -1 -1 -1 -2 -2 -3 -3 -3 -3 -3 -3 -2 -1 -1 -1 -0 0 0 -2 -1 -1 -1 -1 -1 -1 -1 -1 -2 -2 -1 -1 -1 -1 -1 -1 -1 -0 -0 -0 -0 -1 -1 -2
-2 -2 -2 -2 -2 -2 -1 -1 -1 -1 -2 -2 -2 -2 -1 -2 -2 -2 -1 -1 -1 -2 -2 -1 -1 -1 -1 -1 -1 -1 -1 -1 -1 -1 -1 -1 -1 -1 -1 -0 -0 -0 0 0 -1 -3 -3 2 3 1 1 -0 -1 -1 0 -2 -3 -2 -1 -1 -1 -1 -1 -1 -2 -2 -2 -3 -3 -3 -4 -2 -1 -1 -0 -0 -0 -0 -1 -2 -1 -1 -1 -1 -1 -1 -1 -2 -2 -2 -1 -1 -1 -1 -1 -1 -1 -1 -1 -1 -1 -1 -2
-2 -3 -3 -3 -2 -1 -1 -1 -2 -2 -2 -2 -2 -2 -1 -1 -2 -1 -1 -1 -1 -2 -1 -1 -1 -1 -1 -1 -1 -1 -1 -1 -1 -1 -1 -1 -1 -1 -1 -1 -0 -0 -0 -1 -3 -3 1 3 2 1 1 0 0 -0 -0 -3 -3 -1 -1 -1 -1 -1 -1 -1 -1 -1 -2 -3 -3 -3 -3 -3 -2 -1 -0 -2 -3 -2 -1 -2 -2 -1 -2 -1 -1 -1 -1 -1 -1 -1 -1 -1 -1 -2 -1 -1 -1 -1 -2 -1 -2 -2 -1
-2 -3 -3 -2 -2 -2 -1 -2 -2 -2 -2 -2 -2 -1 -1 -1 -2 -1 -1 -1 -1 -1 -1 -1 -1 -1 -1 -1 -1 -1 -1 -1 -1 -1 -1 -1 -1 -1 -1 -1 -1 -1 -1 -3 -2 2 4 2 0 -0 1 1 1 0 -1 -3 -2 -1 -1 -1 -1 -1 -1 -1 -1 -1 -2 -2 -2 -2 -2 -3 -3 -2 1 -3 -3 -2 -2 -1 -1 -1 -1 -1 -1 -1 -1 -1 -0 -0 -1 -1 -1 -1 -1 -1 -1 -1 -2 -1 -1 -1 -1
-2 -2 -2 -2 -2 -2 -2 -2 -2 -2 -2 -2 -2 -1 -2 -2 -2 -2 -2 -1 -1 -1 -1 -1 -1 -1 -1 -1 -0 -0 -0 -1 -1 -1 -1 -1 -1 -1 -1 -1 -1 -1 -3 -3 3 7 4 1 0 -0 0 1 1 0 -3 -3 -2 -1 -1 -1 -1 -1 -1 -1 -1 -1 -2 -2 -2 -2 -1 -3 -3 -2 0 -1 -1 -1 -1 -1 -1 -1 -1 -1 -1 -0 -0 -0 -0 -0 -1 -1 -1 -1 -1 -1 -1 -1 -1 -1 -1 -1 -1
-2 -2 -2 -2 -3 -3 -2 -2 -2 -2 -2 -2 -2 -2 -2 -2 -2 -2 -2 -2 -1 -1 -1 -1 -1 -1 -1 -1 -0 -0 -0 -0 -0 -1 -1 -1 -1 -1 -1 -1 -1 -2 -4 -0 4 5 2 2 1 0 1 1 1 -1 -4 -3 -1 -1 -1 -1 -1 -1 -1 -1 -1 -1 -1 -2 -2 -2 -1 -2 -2 -2 -2 -2 -1 -1 -1 -1 -1 -1 -1 -1 -1 -1 -0 -0 -0 -0 -0 -0 -1 -1 -1 -1 -1 -0 -0 -0 -0 -0 -0
-2 -2 -2 -2 -3 -3 -3 -3 -2 -2 -2 -1 -2 -2 -2 -2 -2 -2 -2 -2 -2 -1 -1 -1 -1 -1 -1 -1 -1 -1 -1 -1 -0 -1 -1 -1 -1 -1 -1 -1 -2 -3 -2 0 2 2 2 2 1 0 1 2 1 -1 -5 -2 -1 -1 -1 -1 -1 -1 -1 -0 -0 -0 -0 -1 -2 -2 -2 -2 -2 -2 -2 -2 -1 -1 -1 -1 -1 -1 -1 -1 -1 -1 -1 -1 -0 -0 0 0 0 -0 -1 -1 -1 -1 -0 -0 -0 -0 0
-1 -1 -2 -2 -3 -3 -3 -3 -3 -3 -2 -1 -2 -2 -3 -2 -2 -3 -3 -2 -2 -2 -1 -1 -1 -1 -1 -1 -2 -3 -2 -2 -1 -1 -1 -1 -1 -1 -1 -2 -2 -1 2 1 0 0 2 1 0 -0 1 2 1 -2 -5 -2 -1 -1 -1 -1 -1 -1 -1 -0 -0 -0 -0 -1 -2 -3 -3 -2 -1 -2 -1 -1 -1 -1 -1 -1 -1 -1 -1 -1 -1 -1 -1 -1 -1 -0 0 0 0 -0 -0 -1 -1 -1 -0 -0 -0 -0 0
0 -0 -1 -2 -2 -2 -3 -3 -3 -3 -3 -2 -1 -2 -2 -2 -2 -3 -3 -2 -2 -2 -2 -2 -1 -1 -1 -3 -3 -1 1 -2 -3 -2 -1 -1 -1 -1 -2 -3 -1 1 2 2 1 1 1 0 -0 -0 0 2 2 -1 -5 -1 -0 -1 -1 -1 -1 -1 -1 -0 -1 -1 -1 -1 -2 -2 -2 -1 -1 -2 -1 -2 -1 -1 -1 -1 -1 -1 -1 -1 -1 -1 -1 -1 -1 -0 0 0 0 -0 -1 -1 -1 -1 -1 -1 -1 -0 -0
1 1 0 -1 -1 -2 -2 -2 -3 -3 -3 -2 -1 -1 -1 -1 -2 -2 -2 -2 -2 -2 -3 -2 -1 -1 -2 -4 -0 4 5 -0 -2 -3 -2 -2 -2 -2 -2 -1 -1 -0 -0 0 0 -0 -0 -1 -1 -0 0 3 2 -1 -5 -1 -0 -1 -1 -1 -1 -1 -1 -1 -1 -1 -1 -1 -1 -1 -1 -1 -1 -1 -1 -2 -1 -1 -1 -1 -1 -1 -1 -1 -2 -2 -2 -1 -1 -0 -0 0 -0 -0 -1 -1 -1 -1 -1 -1 -1 -1 -0
2 2 2 1 -0 -1 -2 -2 -2 -2 -3 -2 -2 -2 -2 -2 -2 -2 -2 -2 -2 -2 -3 -3 -3 -3 -3 -1 2 4 4 1 -0 -1 -2 -2 -1 -1 -1 -1 -1 -1 -1 -1 -1 -1 -1 -1 -1 -0 0 2 0 -3 -5 -1 -0 -1 -1 -0 -0 -0 -1 -1 -1 -1 -1 -1 -1 -1 -1 -1 -1 -1 -1 -1 -1 -1 -1 -1 -1 -1 -1 -1 -1 -2 -2 -1 -1 -1 -0 -0 -1 -1 -1 -1 -1 -1 -1 -1 -1 -1 -1
1 2 2 2 1 0 -1 -2 -2 -2 -3 -3 -3 -4 -4 -3 -3 -2 -2 -2 -2 -2 -2 -3 -4 -3 -1 2 3 2 1 1 0 0 0 0 0 0 -0 -0 -1 -1 -1 -2 -2 -2 -2 -1 -1 -1 0 1 -2 -5 -4 -1 0 -0 -0 -0 -0 -0 -1 -1 -1 -1 -1 -1 -0 -0 -0 -1 -1 -1 -1 -1 -1 -1 -1 -1 -1 -1 -1 -2 -2 -2 -2 -1 -1 -1 -1 -1 -1 -1 -1 -1 -1 -1 -1 -1 -1 -1 -1
0 1 2 2 2 2 1 -1 -2 -2 -3 -3 -4 -5 -3 -4 -4 -3 -2 -2 -2 -2 -2 -3 -3 -2 -1 2 2 2 1 0 -0 0 1 1 1 0 0 0 0 -0 -1 -2 -2 -2 -2 -1 -1 -1 0 0 -3 -5 -2 -0 0 -0 -0 -0 -0 -0 -0 -1 -1 -0 -1 -0 -0 -0 0 -0 -1 -1 -0 -1 -1 -1 -1 -1 -1 -1 -1 -2 -2 -2 -2 -1 -1 -1 -1 -1 -1 -1 -1 -1 -1 -1 -1 -1 -1 -1 -1
1 1 1 1 2 2 2 1 -1 -2 -3 -3 -4 -5 -2 -3 -4 -3 -2 -2 -2 -2 -2 -2 -2 -1 -1 1 2 1 1 -0 -0 0 2 2 1 1 1 1 1 0 -0 -1 -2 -2 -2 -1 -1 -0 0 -0 -3 -5 -1 0 0 -0 -0 -0 -0 -0 -0 -1 -0 -0 -0 -0 0 0 0 0 -0 -0 -0 -1 -1 -1 -1 -1 -1 -1 -1 -2 -2 -2 -2 -1 -1 -1 -1 -1 -1 -1 -2 -1 -1 -1 -1 -1 -1 -1 -1
2 3 2 2 2 2 3 3 2 -1 -3 -3 -4 -4 -2 -3 -3 -3 -2 -1 -1 -1 -1 -1 -1 -1 -1 1 1 1 0 -0 -0 -0 0 1 2 2 2 2 1 1 0 -1 -1 -1 -1 -1 -1 -0 0 -0 -3 -5 -2 -0 -0 -1 -0 -0 -0 0 -0 -0 -0 -0 -0 -0 0 0 0 0 0 -0 -1 -1 -1 -1 -1 -1 -1 -1 -1 -2 -2 -2 -2 -1 -1 -1 -1 -1 -1 -1 -2 -2 -2 -2 -2 -2 -2 -1 -1
2 3 3 3 2 2 3 4 4 2 -1 -2 -3 -3 -3 -3 -3 -3 -1 -1 -1 -1 0 0 0 0 -0 1 1 0 0 0 -0 -1 -1 -1 -0 1 2 2 1 1 1 0 -0 -0 -0 -0 -0 -0 -0 -0 -3 -5 -3 -1 -0 -1 -1 -0 -0 -0 -0 -0 -0 -0 -0 -0 -0 -0 0 0 -0 -0 -0 -1 -1 -1 -1 -1 -1 -1 -1 -1 -1 -1 -1 -1 -1 -1 -1 -1 -1 -1 -1 -2 -2 -2 -2 -2 -2 -2 -2
0 2 3 3 2 2 2 4 5 4 2 -0 -1 -2 -3 -3 -3 -3 -2 -2 -1 -0 0 1 1 0 0 0 0 0 0 1 1 -0 -1 -2 -2 -1 1 1 1 1 1 1 0 0 0 0 0 0 0 0 -2 -5 -5 -1 -0 -0 -1 -0 -0 -0 0 -0 -0 -0 -0 -0 -0 -0 -0 -0 -0 -0 -1 -1 -1 -1 -1 -1 -1 -1 -1 -1 -1 -1 -1 -1 -1 -1 -1 -1 -1 -1 -1 -1 -1 -2 -2 -2 -2 -2 -1
-2 -1 2 1 1 -0 -0 2 3 4 4 2 0 -1 -2 -3 -3 -3 -2 -2 -1 -1 -0 -0 -0 -0 0 -0 -0 0 0 1 1 1 -0 -1 -2 -2 -1 0 1 1 1 1 1 1 0 1 1 1 1 1 -1 -4 -5 -1 -0 -0 -1 -0 -0 -0 -0 -0 -0 -0 -0 -0 -0 -0 -0 -0 -0 -1 -1 -1 -1 -1 -1 -1 -1 -1 -1 -1 -1 -1 -1 -1 -1 -1 -1 -1 -1 -1 -1 -1 -1 -1 -1 -1 -1 -2 -1
-2 -2 -1 0 -0 -2 -2 -2 -1 1 3 2 1 0 -1 -2 -2 -3 -2 -2 -2 -1 -0 -0 -0 -0 0 -0 0 0 -0 0 1 1 0 -0 -1 -1 -1 -0 0 1 1 1 1 1 0 0 0 1 1 1 -0 -3 -6 -1 0 -0 -1 -0 -0 -0 -0 -0 -0 -0 -0 -0 -0 -0 -0 -0 -0 -1 -1 -1 -1 -1 -1 -1 -1 -1 -1 -1 -1 -1 -1 -1 -1 -1 -1 -1 -1 -1 -1 -1 -1 -1 -1 -1 -1 -1 -1
-2 -2 -1 -0 -0 -1 -2 -3 -3 -2 -0 1 1 0 -0 -1 -2 -2 -2 -2 -2 -1 -0 -0 -0 0 0 0 1 0 -1 -0 0 1 1 0 -0 -1 -1 -0 0 0 0 0 0 1 0 0 0 0 0 1 1 -1 -5 -2 -0 0 -0 -0 -0 -0 -0 -0 -0 -0 -0 -0 -0 -0 -0 -0 -0 -0 -1 -1 -1 -1 -1 -1 -1 -1 -1 -1 -1 -1 -1 -1 -1 -1 -1 -1 -1 -1 -1 -1 -1 -1 -1 -1 -1 -1 -2
-0 -0 -1 -0 0 0 0 0 -1 -2 -2 -1 -0 0 -0 -1 -1 -1 -1 -2 -1 -1 -0 -0 -0 -0 -0 0 0 -0 -2 -1 -0 0 1 0 -0 -1 -1 -0 -0 0 -0 -0 0 0 1 0 0 0 0 1 1 -0 -4 -3 -1 0 0 -0 -0 -0 -0 -0 -0 -0 -0 -0 -0 -0 -0 -0 -0 -0 -0 -0 -1 -1 -1 -1 -1 -1 -1 -1 -1 -1 -1 -1 -1 -1 -1 -1 -1 -1 -1 -1 -1 -1 -1 -1 -1 -1 -2
1 1 0 -0 -0 -0 1 1 1 1 -1 -1 -1 -0 -0 -1 -0 -0 -1 -1 -1 -0 0 -0 -1 -1 -0 -0 -1 -2 -2 -1 -0 -0 0 0 0 -0 -1 -1 -1 -1 -0 -0 -0 -0 1 1 0 0 0 1 1 0 -1 -4 -3 -1 1 0 -0 -0 -0 -0 -0 -0 -0 -0 -0 -0 -0 -0 -0 -0 -0 -0 -0 -0 -0 -1 -1 -1 -1 -1 -1 -1 -1 -1 -1 -1 -1 -1 -1 -1 -1 -1 -1 -1 -1 -1 -1 -1 -2
1 1 1 0 -0 -0 -0 0 1 2 1 0 -0 -0 -1 -1 -0 0 -0 -0 0 0 0 0 -0 -1 -0 -1 -1 -2 -1 -1 -1 -1 -0 0 0 0 -0 -1 -1 -1 -0 -0 -0 -1 0 0 0 0 0 1 1 1 1 -2 -4 -3 1 0 0 -0 -0 -0 -0 -0 -0 -0 -0 -0 -0 -0 -0 -0 0 0 -0 -0 -0 -0 -0 -1 -1 -1 -1 -1 -1 -1 -1 -1 -1 -2 -2 -2 -1 -1 -1 -1 -1 -1 -1 -1 -2
1 1 2 2 1 0 -1 -1 0 1 1 1 1 1 0 -0 0 1 1 0 0 0 -0 0 -0 -0 -0 -1 -1 -1 -0 -0 -0 -0 -0 0 -0 -0 0 -1 -1 -1 -1 -1 -1 -1 -0 -0 0 0 0 0 1 1 1 -1 -3 -3 -0 0 0 -0 -0 -0 -0 -0 -0 -0 -0 -0 -0 -0 -0 -0 0 0 0 0 0 -0 -0 -1 -1 -1 -1 -1 -1 -1 -1 -1 -1 -1 -2 -2 -2 -2 -1 -1 -1 -1 -1 -1 -2
0 1 2 2 2 1 -1 -1 -1 -1 -0 -0 1 2 2 1 1 1 1 0 -0 -0 -1 -0 -0 -0 -1 -1 -1 -1 -0 -0 -0 -0 0 0 -1 -1 1 -1 -1 -1 -1 -1 -1 -1 -1 -1 -0 -0 0 -0 0 0 1 -1 -2 -3 -2 0 0 0 -0 -0 -0 -0 -0 -0 -0 -0 -0 -0 -0 -0 -0 0 0 0 0 -0 -0 -1 -1 -1 -1 -1 -1 -1 -1 -1 -1 -1 -2 -2 -3 -2 -2 -1 -1 -1 -1 -1 -1
0 0 1 2 2 2 0 -1 -1 -2 -1 -1 -0 1 2 1 1 0 0 -0 -1 -1 -1 -1 -1 -1 -1 -1 -1 -1 -1 -1 -1 -0 0 -1 -1 -1 1 -1 -1 -1 -1 -2 -1 -1 -0 -1 -1 -1 -0 -0 -0 -0 -1 -1 -1 -2 -3 -1 0 0 -0 -0 -1 -0 -0 -0 -0 -0 -0 -0 -0 -0 -0 -0 -0 -0 -0 -0 -1 -1 -1 -1 -1 -1 -1 -1 -1 -1 -1 -1 -2 -2 -3 -3 -2 -2 -1 -1 -1 -1 -1
0 0 1 2 2 2 1 -0 -1 -1 -1 -2 -1 0 1 1 0 0 -0 -1 -0 -0 -1 -2 -2 -1 -1 -1 -1 -1 -1 -1 -0 -0 -0 -1 -2 -1 0 -1 -1 -1 -1 -2 -1 -1 -0 -1 -1 -1 -0 -0 -1 -1 -2 -0 -0 -1 -3 -2 -1 -1 -1 -1 -1 -0 0 -0 -0 -0 -0 -0 -0 -0 -0 -0 -0 -0 -0 -0 -1 -1 -1 -1 -1 -1 -1 -1 -1 -1 -1 -1 -1 -2 -2 -3 -3 -2 -2 -1 -1 -1 -1
1 1 1 1 2 2 2 1 0 0 0 -1 -1 -1 1 1 1 0 0 -0 0 0 -2 -2 -2 -1 -0 -0 -0 -1 -2 -1 0 0 -1 -2 -2 -1 -0 -1 -1 -1 -2 -2 -1 -1 -0 -1 -1 -0 -0 -0 -1 -1 -2 -0 0 -0 -1 -1 -1 -1 -1 -2 -2 -1 0 -0 -1 -1 -0 -0 -0 -0 -0 -0 -0 -0 -0 -0 -1 -1 -1 -1 -1 -1 -1 -1 -1 -1 -1 -1 -1 -1 -1 -2 -3 -3 -2 -2 -1 -1 -1
1 1 1 1 1 2 3 2 1 1 1 -0 -1 -1 1 1 1 1 0 1 1 0 -2 -2 -1 -0 -0 0 -0 -1 -2 -1 0 0 -1 -2 -2 -1 -1 -1 -0 -1 -2 -2 -1 -1 -1 -0 -0 -0 -0 -1 -1 -1 -1 -1 -0 -0 -0 -1 -1 -1 -1 -2 -2 -2 -0 -0 -0 -0 -0 -0 -0 -0 -0 -0 -0 -0 -1 -1 -1 -1 -1 -1 -1 -1 -1 -1 -1 -1 -1 -1 -0 -0 -1 -1 -2 -2 -2 -2 -2 -1 -1
0 1 1 1 1 2 2 2 1 1 1 0 -0 -0 1 1 1 0 0 1 2 1 -2 -1 -1 -1 -1 -0 -1 -1 -3 -1 0 0 -1 -2 -1 -1 -2 -1 -0 -1 -2 -1 -1 -1 -1 -0 -0 -0 -1 -1 -1 -1 -1 -1 -1 -1 -0 -0 -0 -1 -1 -1 -2 -2 -2 -1 -1 -0 -0 -1 -1 -0 -0 -0 -0 -1 -1 -1 -1 -1 -0 -0 -0 -0 -1 -1 -1 -1 -0 -0 -0 -0 -0 -1 -1 -2 -2 -2 -2 -2 -1
0 1 1 0 1 2 2 2 1 0 0 0 0 0 0 1 1 1 1 2 2 1 -1 -1 -1 -0 -0 -1 -1 -1 -2 -1 -0 0 -1 -1 -1 -2 -3 -1 -0 -0 -1 -1 -1 -1 -1 -0 -0 -0 -1 -1 -1 -1 -1 -1 -1 -1 -0 -0 -1 -1 -0 -0 -1 -2 -2 -2 -2 -1 -0 -1 -1 -1 -1 -1 -1 -1 -1 -1 -1 -1 -1 -1 -1 -1 -1 -1 -1 -0 -0 -0 -0 -0 -0 -0 -1 -1 -1 -2 -2 -2 -2
0 1 1 0 1 1 2 2 1 1 -0 0 -0 -0 0 0 1 2 1 2 2 1 -1 -1 -1 0 1 -1 -2 -1 -1 -2 -1 0 0 0 -1 -2 -2 -1 -0 -0 -1 -1 -1 -2 -2 -1 -0 -0 -1 -0 -1 -1 -2 -2 -1 -1 -0 -1 -1 -1 0 0 -0 -1 -2 -2 -2 -1 -0 -0 -1 -1 -1 -1 -1 -1 -1 -1 -1 -1 -1 -1 -1 -1 -1 -1 -1 -1 -0 -0 -0 -0 -0 -0 -1 -1 -1 -1 -1 -2 -2
1 1 1 1 1 1 1 1 1 1 0 0 -0 -0 -0 0 1 2 1 2 2 1 -0 -2 -1 0 1 -2 -2 -2 -1 -2 -1 -0 1 2 0 -2 -2 -1 -1 -1 -1 -1 -1 -2 -2 -1 -1 -0 0 -0 -1 -2 -3 -2 -2 -1 -1 -1 -1 -0 0 -0 -0 -0 -1 -2 -2 -2 -0 -0 -1 -1 -1 -1 -1 -1 -1 -1 -1 -1 -1 -1 -1 -1 -1 -1 -1 -1 -1 -1 -1 -0 -0 -0 -1 -1 -1 -1 -1 -1 -1
1 2 2 1 1 2 1 1 1 1 -0 -0 0 0 0 1 1 2 1 1 1 1 -0 -3 -2 0 1 -2 -2 -2 -1 -1 -1 -0 2 3 1 -1 -2 -1 -1 -1 -1 -0 -1 -1 -2 -2 -1 -0 0 0 -1 -2 -3 -3 -2 -2 -1 -1 -1 -1 0 -0 -0 -0 -1 -1 -2 -2 -1 -1 -1 -1 -1 -1 -1 -1 -1 -1 -1 -1 -1 -1 -1 -1 -1 -1 -1 -1 -1 -1 -1 -1 -1 -0 -0 -1 -1 -1 -1 -1 -1
1 1 1 1 1 1 1 1 1 0 -1 -1 -0 0 1 1 1 1 1 1 0 0 -1 -4 -3 -0 2 0 -1 -1 0 0 -1 -1 1 2 1 -1 -1 -1 -1 -1 -0 -0 -0 -1 -1 -1 -1 -0 0 0 -0 -1 -3 -3 -3 -2 -1 -2 -1 -1 0 -0 -0 -0 -0 -1 -1 -1 -1 -1 -1 -1 -1 -1 -1 -1 -1 -2 -2 -2 -2 -2 -2 -2 -1 -1 -1 -1 -1 -1 -1 -1 -1 -1 -1 -1 -1 -1 -1 -1 -1
1 1 1 0 1 1 2 1 1 -0 -2 -1 -0 0 0 0 0 0 0 -0 -1 -1 -1 -4 -3 -1 3 2 1 1 2 1 -1 -2 0 1 1 -0 0 -0 -1 -0 0 -0 -1 -1 -1 -1 -1 -0 0 0 0 -1 -2 -4 -3 -2 -1 -2 -2 -1 -0 0 0 -0 -0 -1 -1 -1 -1 -1 -1 -1 -1 -1 -1 -2 -1 -1 -1 -2 -2 -2 -1 -1 -1 -1 -1 -1 -1 -1 -1 -1 -1 -1 -1 -1 -1 -1 -1 -1 -1
1 0 0 0 1 1 2 2 1 -1 -2 -2 -1 -0 -0 -0 -1 -1 -0 -1 -2 -2 -0 -3 -3 -2 2 3 2 2 3 0 -3 -3 -0 1 1 1 0 0 -0 0 1 0 -1 -1 -1 -1 -0 -0 0 -0 -0 -0 -2 -3 -3 -2 -0 -1 -2 -1 -0 0 0 -0 -0 -0 -0 -0 -0 -0 -1 -1 -1 -1 -1 -2 -2 -1 -1 -1 -1 -1 -1 -1 -1 -1 -0 0 0 0 0 -0 -0 -1 -1 -1 -1 -1 -1 -1 -1
0 0 -0 0 1 2 1 2 0 -1 -3 -2 -1 -0 0 1 0 0 1 -0 -1 -1 1 -2 -3 -2 1 2 2 2 2 -1 -3 -2 2 2 2 1 -1 -0 0 0 0 0 -0 -1 -1 -0 -0 -0 -0 -0 -0 -0 -1 -3 -3 -2 0 -1 -1 -1 -1 -0 0 -0 -0 0 0 0 0 -0 -0 -1 -1 -1 -1 -1 -2 -2 -1 -0 0 -0 -1 -1 -1 -0 -0 0 0 0 0 0 0 -0 -0 -1 -1 -1 -1 -1 -1
0 0 0 1 1 2 2 2 0 -2 -4 -3 -1 1 2 2 2 2 3 1 0 -0 2 -2 -3 -1 2 2 1 1 2 -1 -2 0 4 2 2 1 -1 -2 -1 -1 -1 -1 -0 0 0 0 -0 -1 -1 -1 -1 -1 -1 -2 -2 -1 0 -0 -1 -1 -1 -0 -0 -0 -0 0 0 1 1 0 0 -0 -0 -0 -0 -1 -1 -1 -2 -2 -1 0 0 0 0 0 0 0 -0 -0 0 0 0 0 -0 -0 -0 -1 -0 -0 -0
-0 -0 -0 1 1 2 2 3 1 -2 -5 -3 -1 2 3 2 2 2 3 2 0 -1 -1 -3 -2 0 4 3 0 -1 1 -1 -1 1 3 -0 -1 -0 -1 -0 -0 -1 -4 -5 -3 -1 1 0 -0 -1 -1 -1 -1 -1 -1 -1 -1 -1 -0 -0 -0 -0 -0 -1 -1 -1 -0 0 0 0 1 1 0 0 0 0 0 0 -0 -0 -1 -1 -2 -2 -1 -1 -1 0 1 0 -1 -0 -0 0 0 0 -0 -0 -0 -0 -1 -1 -0
-1 -0 0 1 2 2 3 4 2 -1 -3 -2 -1 1 2 2 2 1 0 0 -0 -1 -4 -4 -2 1 3 5 1 -3 -3 -2 -1 -1 -1 -0 1 1 1 2 2 1 1 -4 -7 -6 -1 -1 -1 -1 -1 -1 -1 -1 -1 -0 -0 0 -0 -0 0 0 0 -1 -1 -1 0 0 0 0 1 1 1 0 1 1 1 1 0 0 0 -0 -1 -1 -2 -2 -2 -1 -0 -0 -1 -1 -1 -0 -0 -0 -0 -0 -0 -0 -1 -1 -0
-0 0 1 1 2 3 4 3 2 1 -1 -2 -2 -1 0 1 1 0 -1 -1 0 -0 -3 -4 -2 1 3 4 -0 -5 -6 -3 -1 0 2 5 5 4 3 2 -1 -2 0 6 4 -2 -7 -5 -3 -1 -0 0 -0 -1 -1 -0 0 0 0 0 0 1 0 -1 -1 -1 0 0 0 0 0 1 1 1 1 1 1 1 0 0 0 0 0 -0 -1 -2 -3 -1 -0 -0 -1 -1 -1 -0 -0 -0 -0 -0 -0 -0 -0 -0 -0
0 1 2 2 2 2 3 2 2 2 1 -2 -3 -1 -1 -0 0 -0 -2 -2 -1 -1 -3 -5 -3 0 1 -0 -3 -6 -7 -3 -0 2 4 5 3 1 1 -3 -6 -5 2 5 7 8 3 -3 -4 -3 -2 -0 -0 -1 -2 -1 -0 -0 -0 -0 0 1 1 -1 -1 -0 1 0 0 -0 -0 0 0 1 1 1 1 0 0 1 1 1 0 0 -0 -1 -3 -1 -0 -0 -1 -1 -1 -1 -0 -0 -0 0 0 -0 -0 -0 -0
0 1 1 1 2 2 1 1 3 4 3 -1 -2 -1 -1 -0 -0 -1 -2 -3 -2 -1 -3 -4 -4 -3 -2 -3 -4 -4 -3 -3 -0 2 3 3 -0 -4 -6 -4 -1 1 1 -2 -4 -3 9 4 0 -1 -3 -2 -1 -2 -2 -1 -1 -1 -1 -0 0 1 0 -1 -1 -1 1 1 0 -1 -1 -1 0 1 2 1 1 0 0 1 1 1 0 0 -0 -1 -2 -1 -2 -2 -1 -1 -0 0 -0 -0 -0 -0 -0 -0 -0 0 0
1 1 -0 -1 -2 -1 0 2 3 4 5 1 -2 -3 -2 -0 1 1 0 -0 0 1 -2 -3 -4 -4 -4 -2 -1 -1 -2 -2 -1 1 4 3 -0 -3 -4 -4 -2 -1 -1 -3 -10 -10 9 4 2 0 -2 -2 -2 -2 -3 -2 -1 -1 -1 -1 0 0 0 -1 -1 -0 1 1 0 -2 -2 -1 -0 1 2 1 1 0 0 1 1 1 0 0 -0 -1 -2 -2 -2 -3 -4 -2 0 1 1 -0 -1 -1 -0 -0 -0 0 0
1 1 0 -1 -1 -2 -1 0 2 3 4 0 -2 -3 -2 1 3 4 4 2 2 1 -2 -2 -2 -2 -3 1 3 2 -2 -3 -3 -1 4 3 2 0 -1 -5 -8 -8 -5 -5 -2 4 13 3 -1 -1 1 -2 -2 -1 -1 -2 -1 -1 -1 -1 -0 0 0 -0 -0 0 2 1 0 -1 -2 -2 -1 0 1 1 1 1 1 1 1 1 0 0 -0 -1 -3 -3 -3 -4 -7 -5 -2 0 0 -1 -1 -1 -1 -1 -1 -0 0
1 1 1 1 1 0 -2 -3 -2 1 2 -0 -2 -2 -1 2 4 4 3 2 0 -1 -1 0 0 -0 -1 3 4 3 -1 -5 -6 -4 2 4 3 1 -1 -3 -6 -8 -10 -7 0 7 7 2 -4 -3 12 2 -1 0 -0 -2 -2 -1 -1 -1 -0 0 0 0 0 1 1 1 0 -1 -2 -2 -2 -1 0 1 1 1 0 1 1 1 0 0 0 -1 -2 -3 -3 -4 -6 -6 -4 -2 -1 -2 -2 -2 -1 -1 -1 -1 0
0 1 1 2 2 1 0 -2 -2 -2 -1 -2 -2 -2 -1 1 2 3 4 3 2 1 2 2 1 1 1 3 4 3 -2 -6 -7 -5 0 4 2 -1 -0 -0 0 0 0 -2 -1 0 0 -1 -6 -3 15 5 1 -0 0 -1 -2 -2 -1 -1 -0 0 0 0 0 1 1 0 -0 -1 -1 -2 -2 -1 0 0 1 0 0 1 1 1 1 1 0 -1 -2 -2 -2 -3 -4 -5 -4 -3 -2 -2 -2 -2 -2 -2 -1 -1 -0
-0 1 1 1 1 1 2 1 0 -1 -2 -2 -3 -3 -3 -1 2 4 6 5 4 3 2 1 1 3 3 2 1 -1 -4 -4 -6 -6 -1 0 -2 -4 1 1 -1 -2 -0 1 1 1 0 -2 -3 -2 4 3 4 5 0 -1 -1 -1 -1 -1 -1 -0 -0 0 0 1 1 0 -0 -0 -1 -2 -2 -0 1 0 0 0 -0 0 1 1 1 1 0 -1 -2 -1 -1 -1 -3 -3 -2 -2 -1 -2 -2 -2 -2 -2 -2 -2 -1
-1 0 1 -0 -0 0 2 3 1 -1 -3 -3 -4 -5 -3 -0 3 5 5 5 5 4 1 0 2 4 3 1 -0 -2 -3 0 -2 -6 -6 -3 -4 -4 1 1 -0 -1 0 -0 0 1 2 0 -1 -1 -2 -4 0 5 5 0 -1 -0 -0 -1 -1 -1 -1 0 1 1 1 1 0 -0 -0 -1 -1 -0 2 1 0 0 0 1 1 2 2 2 1 -0 -1 -1 -1 -2 -3 -2 -0 1 0 -1 -2 -2 -3 -3 -3 -3 -2
Height
1547 1548 1548 1548 1549 1550 1550 1551 1551 1551 1551 1552 1552 1552 1552 1552 1552 1552 1552 1552 1552 1552 1552 1552 1552 1552 1552 1552 1553 1553 1553 1553 1553 1553 1553 1554 1554 1554 1555 1555 1555 1556 1557 1557 1557 1557 1557 1559 1561 1562 1561 1561 1561 1561 1561 1561 1561 1562 1562 1561 1560 1560 1559 1559 1559 1558 1558 1558 1558 1558 1558 1558 1558 1558 1558 1558 1558 1558 1558 1559 1559 1558 1558 1558 1558 1558 1558 1558 1558 1558 1558 1558 1558 1559 1559 1559 1558 1558 1558 1557 1557 1557 1557
1548 1548 1548 1549 1550 1551 1551 1551 1552 1552 1552 1552 1552 1552 1552 1552 1553 1553 1553 1553 1553 1553 1553 1553 1553 1553 1553 1553 1553 1553 1553 1554 1554 1554 1554 1554 1555 1555 1555 1556 1556 1557 1557 1558 1558 1557 1558 1560 1562 1562 1562 1561 1561 1561 1561 1561 1562 1561 1561 1561 1561 1560 1560 1559 1559 1559 1559 1559 1558 1558 1558 1558 1558 1558 1559 1559 1559 1559 1559 1560 1560 1559 1558 1558 1559 1559 1558 1558 1558 1558 1558 1558 1558 1559 1560 1559 1558 1558 1558 1557 1557 1557 1558
1548 1548 1549 1549 1550 1551 1551 1552 1552 1552 1552 1552 1553 1553 1553 1553 1553 1553 1553 1553 1553 1554 1553 1553 1553 1553 1554 1554 1554 1554 1554 1554 1555 1555 1555 1555 1555 1556 1556 1556 1557 1557 1557 1558 1558 1558 1559 1561 1562 1562 1562 1561 1561 1561 1562 1562 1562 1561 1561 1561 1561 1561 1560 1560 1560 1559 1559 1559 1559 1559 1558 1559 1559 1559 1559 1559 1559 1559 1559 1559 1559 1559 1559 1559 1559 1558 1558 1558 1559 1559 1559 1558 1558 1559 1559 1559 1559 1558 1558 1558 1558 1558 1558
1548 1548 1549 1550 1550 1551 1551 1552 1552 1552 1552 1552 1553 1553 1553 1553 1553 1553 1553 1554 1554 1554 1554 1554 1554 1554 1554 1555 1555 1555 1555 1555 1555 1555 1556 1556 1556 1556 1557 1557 1557 1558 1558 1558 1558 1558 1560 1561 1562 1562 1562 1562 1561 1561 1562 1562 1562 1561 1561 1561 1561 1561 1561 1560 1560 1560 1559 1559 1559 1559 1559 1559 1559 1559 1559 1559 1559 1559 1559 1559 1559 1559 1559 1559 1558 1558 1558 1558 1559 1558 1558 1558 1558 1559 1559 1559 1558 1558 1558 1558 1558 1558 1558
1548 1549 1549 1550 1551 1551 1551 1552 1552 1552 1552 1553 1553 1553 1553 1553 1553 1554 1554 1554 1554 1555 1555 1555 1555 1555 1555 1555 1555 1556 1556 1556 1556 1556 1556 1556 1557 1557 1557 1557 1558 1558 1558 1559 1558 1559 1561 1562 1562 1562 1562 1562 1562 1562 1562 1562 1562 1561 1561 1561 1561 1561 1561 1560 1560 1560 1560 1560 1559 1559 1559 1559 1559 1559 1559 1559 1559 1559 1559 1559 1559 1559 1558 1558 1558 1558 1558 1558 1558 1558 1559 1559 1559 1559 1559 1559 1558 1558 1558 1558 1558 1558 1558
1548 1549 1549 1550 1551 1551 1551 1552 1552 1552 1553 1553 1553 1553 1553 1553 1554 1554 1554 1554 1555 1555 1555 1555 1555 1555 1555 1556 1556 1556 1556 1556 1557 1557 1557 1557 1557 1557 1558 1558 1558 1558 1559 1559 1559 1559 1561 1562 1562 1562 1562 1562 1562 1562 1562 1562 1562 1561 1561 1561 1561 1561 1561 1561 1560 1560 1560 1560 1560 1560 1559 1559 1559 1559 1559 1559 1559 1559 1559 1559 1559 1559 1559 1558 1558 1558 1559 1559 1559 1558 1558 1559 1559 1559 1559 1559 1559 1558 1558 1558 1558 1558 1558
1548 1549 1549 1550 1551 1551 1551 1552 1552 1552 1553 1553 1553 1553 1554 1554 1554 1554 1554 1555 1555 1555 1555 1555 1556 1556 1556 1556 1556 1557 1557 1557 1557 1557 1558 1558 1558 1558 1558 1558 1558 1559 1559 1559 1559 1559 1561 1562 1562 1562 1562 1562 1562 1562 1562 1562 1562 1562 1561 1561 1561 1561 1561 1561 1561 1561 1561 1560 1560 1560 1560 1560 1560 1559 1559 1559 1559 1559 1559 1559 1559 1559 1559 1559 1559 1559 1559 1559 1559 1559 1558 1558 1558 1559 1559 1559 1559 1559 1558 1558 1558 1558 1558
1548 1549 1549 1550 1550 1551 1551 1552 1552 1553 1553 1553 1553 1554 1554 1554 1554 1554 1555 1555 1555 1556 1556 1556 1556 1556 1556 1557 1557 1557 1557 1557 1558 1558 1558 1558 1558 1558 1559 1559 1559 1559 1559 1560 1560 1560 1560 1561 1562 1562 1562 1562 1562 1562 1563 1563 1563 1562 1561 1561 1561 1561 1561 1561 1561 1561 1561 1560 1560 1560 1560 1560 1560 1560 1560 1559 1559 1559 1559 1559 1559 1559 1559 1559 1559 1559 1559 1559 1559 1559 1558 1558 1558 1559 1559 1559 1559 1559 1558 1559 1559 1558 1558
1548 1549 1549 1550 1550 1551 1551 1552 1552 1553 1553 1553 1553 1554 1554 1554 1554 1555 1555 1555 1556 1556 1556 1556 1556 1556 1557 1557 1557 1557 1558 1558 1558 1558 1558 1558 1559 1559 1559 1559 1559 1560 1560 1560 1560 1560 1560 1561 1562 1562 1562 1562 1562 1563 1563 1563 1563 1562 1562 1561 1561 1561 1561 1561 1561 1561 1561 1560 1560 1560 1560 1560 1560 1560 1560 1559 1559 1559 1559 1559 1559 1559 1559 1559 1559 1559 1559 1559 1559 1558 1558 1558 1558 1558 1559 1559 1559 1559 1559 1559 1559 1559 1559
1548 1549 1549 1550 1550 1551 1551 1552 1553 1553 1553 1553 1554 1554 1554 1554 1555 1555 1555 1555 1556 1556 1556 1556 1556 1557 1557 1557 1557 1558 1558 1558 1558 1558 1558 1559 1559 1559 1559 1560 1560 1560 1560 1560 1561 1561 1560 1561 1562 1562 1562 1562 1562 1563 1563 1563 1563 1562 1562 1562 1561 1561 1561 1561 1561 1561 1561 1560 1560 1560 1560 1560 1560 1559 1560 1559 1559 1559 1559 1559 1559 1559 1559 1559 1559 1559 1559 1559 1558 1558 1558 1558 1558 1558 1558 1559 1559 1559 1559 1559 1559 1559 1559
1548 1548 1549 1550 1550 1551 1552 1552 1553 1553 1553 1553 1554 1554 1554 1554 1555 1555 1555 1556 1556 1556 1556 1556 1557 1557 1557 1557 1558 1558 1558 1558 1558 1558 1558 1559 1559 1559 1559 1560 1560 1560 1560 1561 1561 1561 1561 1561 1562 1562 1562 1562 1562 1563 1563 1563 1563 1562 1562 1562 1562 1561 1561 1561 1561 1561 1561 1560 1560 1560 1560 1559 1559 1559 1560 1560 1560 1559 1559 1559 1559 1559 1559 1559 1559 1559 1559 1558 1558 1558 1558 1558 1558 1558 1558 1558 1558 1558 1558 1558 1558 1558 1558
1548 1548 1549 1550 1550 1551 1552 1552 1553 1553 1553 1554 1554 1554 1554 1555 1555 1555 1555 1556 1556 1556 1556 1557 1557 1557 1557 1558 1558 1558 1558 1558 1558 1558 1559 1559 1559 1559 1560 1560 1560 1560 1561 1561 1561 1561 1561 1562 1563 1563 1563 1563 1562 1563 1563 1563 1562 1562 1562 1562 1562 1561 1561 1561 1561 1561 1560 1560 1560 1560 1560 1559 1559 1559 1560 1560 1560 1559 1559 1559 1559 1559 1559 1559 1559 1558 1558 1558 1558 1558 1558 1558 1558 1558 1558 1558 1558 1558 1558 1558 1558 1558 1558
1548 1549 1549 1550 1550 1551 1552 1552 1553 1553 1553 1554 1554 1554 1554 1555 1555 1555 1555 1556 1556 1556 1556 1557 1557 1557 1557 1558 1558 1558 1558 1558 1558 1558 1559 1559 1559 1559 1560 1560 1560 1560 1561 1561 1561 1561 1561 1563 1563 1563 1563 1563 1562 1562 1562 1562 1562 1562 1562 1562 1562 1561 1561 1561 1561 1561 1560 1560 1560 1560 1560 1559 1559 1559 1559 1559 1559 1559 1559 1559 1559 1559 1559 1559 1559 1559 1558 1558 1558 1558 1558 1558 1558 1558 1558 1558 1558 1558 1558 1558 1558 1558 1558
1549 1549 1549 1550 1550 1551 1552 1552 1553 1553 1553 1554 1554 1554 1555 1555 1555 1555 1556 1556 1556 1556 1557 1557 1557 1557 1557 1558 1558 1558 1558 1558 1558 1558 1559 1559 1559 1559 1560 1560 1560 1560 1560 1560 1560 1561 1562 1563 1563 1563 1563 1563 1562 1562 1562 1562 1561 1561 1562 1561 1561 1561 1561 1561 1561 1561 1560 1560 1560 1560 1560 1559 1559 1559 1559 1559 1560 1559 1559 1559 1559 1559 1559 1559 1559 1559 1559 1558 1558 1558 1558 1558 1558 1558 1558 1558 1558 1558 1558 1558 1557 1557 1557
1549 1549 1550 1550 1551 1551 1552 1552 1553 1553 1553 1554 1554 1554 1555 1555 1555 1555 1556 1556 1556 1556 1557 1557 1557 1557 1557 1558 1558 1558 1558 1558 1558 1559 1559 1559 1559 1559 1560 1560 1560 1560 1560 1560 1561 1563 1563 1563 1563 1563 1563 1563 1563 1562 1562 1561 1561 1561 1561 1561 1561 1561 1561 1561 1561 1560 1560 1560 1560 1560 1560 1560 1559 1559 1560 1560 1559 1559 1559 1559 1559 1559 1559 1559 1559 1559 1559 1558 1558 1558 1558 1558 1558 1558 1558 1558 1558 1558 1558 1557 1557 1557 1557
1549 1550 1550 1550 1551 1551 1552 1552 1553 1553 1553 1553 1554 1554 1554 1554 1555 1555 1555 1556 1556 1556 1557 1557 1557 1557 1557 1558 1558 1558 1558 1558 1558 1559 1559 1559 1559 1560 1560 1560 1560 1560 1560 1561 1563 1564 1564 1563 1563 1563 1563 1563 1562 1562 1561 1561 1561 1561 1561 1561 1561 1561 1561 1561 1560 1560 1560 1560 1560 1560 1560 1560 1560 1559 1560 1559 1559 1559 1559 1559 1559 1559 1559 1559 1559 1559 1559 1559 1558 1558 1558 1558 1558 1558 1558 1558 1558 1557 1557 1557 1557 1557 1557
1549 1550 1550 1551 1551 1552 1552 1552 1553 1553 1553 1553 1553 1554 1554 1554 1555 1555 1555 1556 1556 1556 1557 1557 1557 1557 1557 1558 1558 1558 1558 1558 1558 1559 1559 1559 1559 1560 1560 1560 1560 1560 1560 1562 1563 1564 1563 1563 1563 1563 1563 1563 1562 1561 1561 1561 1561 1561 1560 1560 1560 1560 1560 1560 1560 1560 1560 1560 1559 1559 1559 1559 1559 1559 1559 1559 1559 1559 1559 1559 1559 1559 1559 1559 1559 1558 1558 1558 1558 1558 1558 1558 1558 1558 1557 1557 1557 1557 1557 1557 1557 1557 1557
1549 1550 1550 1551 1551 1552 1552 1552 1553 1553 1553 1553 1553 1553 1554 1554 1555 1555 1555 1556 1556 1556 1556 1557 1557 1557 1557 1558 1558 1558 1558 1558 1558 1559 1559 1559 1559 1560 1560 1560 1560 1561 1561 1562 1563 1563 1563 1563 1563 1563 1563 1563 1562 1561 1560 1560 1560 1560 1560 1560 1560 1560 1560 1560 1560 1560 1559 1559 1559 1559 1559 1559 1559 1559 1559 1559 1559 1559 1559 1559 1558 1558 1558 1558 1558 1558 1558 1558 1558 1558 1558 1558 1558 1558 1557 1557 1557 1557 1557 1557 1557 1557 1557
1549 1550 1550 1551 1551 1551 1552 1552 1552 1552 1553 1553 1553 1553 1554 1554 1555 1555 1555 1556 1556 1556 1556 1557 1557 1557 1558 1558 1558 1558 1558 1558 1559 1559 1559 1559 1559 1560 1560 1560 1561 1561 1562 1563 1563 1563 1563 1563 1563 1563 1563 1563 1562 1561 1560 1560 1560 1560 1560 1559 1559 1559 1559 1559 1559 1559 1559 1559 1559 1559 1559 1559 1559 1559 1559 1559 1559 1559 1559 1558 1558 1558 1558 1558 1558 1558 1558 1558 1558 1558 1558 1558 1558 1557 1557 1557 1557 1557 1557 1557 1557 1557 1557
1549 1550 1550 1551 1551 1551 1552 1552 1552 1552 1552 1553 1553 1553 1554 1554 1555 1555 1556 1556 1556 1556 1556 1557 1557 1557 1558 1558 1558 1559 1560 1559 1559 1559 1559 1559 1559 1560 1560 1560 1561 1562 1562 1563 1563 1563 1563 1563 1563 1563 1563 1563 1562 1560 1559 1560 1560 1560 1559 1559 1559 1559 1559 1559 1559 1559 1558 1558 1558 1558 1558 1558 1558 1558 1558 1558 1558 1558 1558 1558 1558 1558 1558 1558 1558 1558 1557 1558 1558 1558 1558 1558 1557 1557 1557 1557 1557 1557 1557 1557 1557 1557 1557
1549 1550 1550 1550 1551 1551 1551 1552 1552 1552 1553 1553 1553 1553 1554 1554 1555 1555 1556 1556 1556 1556 1557 1557 1557 1557 1558 1558 1559 1560 1561 1560 1559 1559 1559 1559 1559 1560 1560 1561 1561 1562 1562 1562 1562 1562 1562 1562 1562 1562 1563 1563 1562 1560 1559 1559 1560 1559 1559 1559 1559 1558 1558 1558 1558 1558 1558 1558 1558 1558 1558 1558 1558 1558 1558 1558 1558 1558 1558 1558 1558 1558 1558 1557 1557 1557 1557 1557 1557 1557 1557 1557 1557 1557 1557 1557 1557 1556 1556 1556 1556 1556 1556
1549 1549 1550 1550 1550 1551 1551 1552 1552 1553 1553 1553 1553 1554 1554 1554 1555 1555 1556 1556 1557 1557 1557 1557 1557 1557 1558 1558 1560 1561 1561 1560 1560 1560 1560 1560 1560 1560 1560 1561 1561 1561 1562 1562 1562 1562 1562 1562 1562 1562 1562 1562 1561 1560 1559 1559 1559 1559 1559 1558 1558 1558 1558 1558 1558 1558 1558 1558 1558 1558 1557 1557 1558 1557 1557 1557 1557 1557 1557 1557 1557 1557 1557 1557 1557 1557 1557 1557 1557 1557 1557 1557 1557 1557 1557 1557 1557 1556 1556 1556 1556 1556 1556
1549 1549 1549 1550 1550 1550 1551 1551 1552 1552 1553 1553 1553 1554 1554 1554 1555 1555 1556 1556 1557 1557 1557 1557 1557 1558 1558 1559 1560 1560 1561 1560 1560 1560 1560 1560 1560 1560 1560 1561 1561 1561 1561 1561 1561 1561 1561 1561 1561 1562 1562 1562 1560 1559 1559 1559 1559 1559 1558 1558 1558 1558 1558 1558 1558 1558 1557 1557 1557 1557 1557 1557 1557 1557 1557 1557 1557 1557 1557 1557 1557 1557 1557 1557 1557 1557 1557 1557 1557 1557 1557 1557 1557 1557 1557 1557 1556 1556 1556 1556 1556 1556 1556
1549 1549 1549 1549 1550 1550 1550 1551 1551 1552 1553 1553 1553 1554 1555 1555 1555 1555 1556 1556 1556 1557 1557 1557 1558 1558 1559 1559 1560 1560 1560 1560 1560 1560 1560 1560 1560 1560 1560 1560 1560 1561 1561 1561 1560 1561 1561 1561 1561 1561 1561 1561 1560 1558 1559 1559 1559 1558 1558 1558 1558 1558 1558 1558 1557 1557 1557 1557 1557 1557 1557 1557 1557 1557 1557 1557 1557 1557 1557 1557 1557 1557 1557 1556 1556 1556 1556 1556 1556 1556 1557 1557 1557 1557 1556 1556 1556 1556 1556 1556 1556 1556 1556
1549 1550 1549 1550 1550 1550 1550 1551 1551 1552 1552 1553 1553 1554 1555 1555 1555 1555 1556 1556 1556 1557 1557 1557 1558 1558 1558 1559 1560 1560 1560 1560 1560 1560 1560 1560 1560 1560 1560 1560 1560 1560 1560 1560 1560 1560 1560 1560 1560 1561 1561 1560 1559 1558 1558 1558 1558 1558 1558 1558 1558 1557 1557 1557 1557 1557 1557 1557 1557 1557 1556 1556 1556 1556 1556 1556 1556 1556 1556 1556 1556 1556 1556 1556 1556 1556 1556 1556 1556 1556 1556 1556 1556 1556 1556 1556 1556 1556 1556 1556 1556 1555 1555
1549 1550 1550 1550 1550 1550 1550 1551 1551 1551 1551 1552 1553 1553 1555 1555 1555 1555 1556 1556 1556 1557 1557 1558 1558 1558 1558 1559 1559 1559 1559 1559 1560 1560 1560 1560 1560 1560 1560 1560 1560 1560 1560 1560 1560 1560 1560 1560 1560 1560 1560 1559 1558 1558 1558 1558 1558 1558 1557 1557 1557 1557 1557 1557 1557 1557 1557 1556 1556 1556 1556 1556 1556 1556 1556 1556 1556 1556 1556 1556 1556 1556 1556 1556 1556 1556 1556 1556 1556 1556 1556 1556 1556 1556 1556 1556 1555 1555 1555 1555 1555 1555 1555
1549 1549 1550 1550 1550 1550 1550 1551 1551 1551 1551 1551 1552 1553 1554 1554 1555 1555 1555 1556 1556 1557 1557 1557 1558 1558 1558 1558 1559 1559 1559 1559 1559 1559 1559 1559 1560 1560 1560 1560 1560 1559 1559 1559 1559 1559 1559 1559 1560 1559 1559 1559 1558 1557 1557 1557 1557 1557 1557 1557 1557 1557 1557 1557 1557 1556 1556 1556 1556 1556 1556 1556 1556 1556 1556 1556 1556 1556 1556 1556 1556 1556 1556 1556 1556 1556 1556 1556 1556 1556 1555 1555 1555 1555 1555 1555 1555 1555 1555 1555 1555 1555 1555
1548 1549 1549 1549 1550 1550 1550 1550 1551 1550 1550 1551 1551 1552 1553 1554 1554 1555 1555 1555 1556 1556 1557 1557 1557 1558 1558 1558 1558 1558 1558 1559 1559 1559 1559 1559 1559 1559 1559 1559 1559 1559 1559 1559 1559 1559 1559 1559 1559 1559 1559 1559 1558 1556 1556 1557 1557 1557 1556 1556 1556 1556 1556 1556 1556 1556 1556 1556 1556 1556 1556 1556 1556 1556 1556 1556 1555 1555 1555 1555 1555 1556 1556 1556 1556 1555 1555 1555 1555 1555 1555 1555 1555 1555 1555 1555 1555 1555 1555 1554 1554 1554 1554
1547 1548 1548 1549 1549 1549 1549 1550 1550 1550 1550 1550 1551 1552 1552 1553 1553 1554 1554 1555 1555 1556 1556 1557 1557 1557 1557 1557 1558 1558 1558 1558 1558 1558 1558 1558 1558 1559 1559 1559 1559 1559 1559 1559 1559 1559 1559 1559 1559 1559 1559 1558 1557 1556 1555 1556 1556 1556 1556 1556 1556 1556 1556 1556 1556 1556 1556 1556 1556 1555 1555 1555 1555 1555 1555 1555 1555 1555 1555 1555 1555 1555 1555 1555 1555 1555 1555 1555 1555 1555 1555 1555 1555 1555 1555 1555 1554 1554 1554 1554 1554 1554 1554
1546 1547 1548 1548 1548 1548 1548 1549 1550 1550 1550 1550 1550 1551 1552 1552 1553 1553 1554 1554 1555 1555 1556 1556 1556 1556 1557 1557 1557 1557 1558 1558 1558 1558 1558 1558 1558 1558 1558 1559 1559 1559 1558 1558 1558 1558 1558 1558 1558 1558 1558 1558 1557 1556 1555 1555 1556 1556 1556 1556 1555 1555 1555 1555 1555 1555 1555 1555 1555 1555 1555 1555 1555 1555 1555 1555 1555 1555 1555 1555 1555 1555 1555 1555 1555 1555 1555 1555 1554 1554 1554 1554 1554 1554 1554 1554 1554 1554 1554 1554 1554 1554 1553
1545 1546 1547 1547 1548 1548 1548 1548 1548 1549 1549 1549 1550 1550 1551 1552 1552 1553 1553 1553 1554 1554 1555 1555 1556 1556 1556 1556 1557 1557 1557 1557 1557 1558 1558 1558 1558 1558 1558 1558 1558 1558 1558 1558 1558 1558 1558 1558 1558 1558 1558 1558 1557 1556 1554 1555 1555 1555 1555 1555 1555 1555 1555 1555 1555 1555 1555 1555 1555 1555 1555 1555 1555 1555 1555 1555 1555 1555 1555 1555 1555 1555 1555 1555 1554 1554 1554 1554 1554 1554 1554 1554 1554 1554 1554 1554 1554 1554 1554 1553 1553 1553 1553
1545 1545 1546 1546 1547 1547 1547 1547 1548 1548 1548 1549 1549 1550 1550 1551 1552 1552 1553 1553 1553 1554 1554 1555 1555 1555 1556 1556 1556 1556 1556 1556 1557 1557 1557 1558 1558 1558 1558 1558 1558 1558 1558 1558 1557 1558 1558 1558 1557 1557 1557 1557 1557 1556 1554 1554 1554 1555 1555 1555 1555 1555 1555 1555 1555 1555 1555 1555 1555 1555 1555 1555 1554 1554 1554 1554 1554 1554 1554 1554 1554 1554 1554 1554 1554 1554 1554 1554 1553 1553 1553 1553 1553 1553 1553 1553 1553 1553 1553 1553 1553 1553 1553
1544 1544 1545 1546 1546 1546 1546 1546 1547 1547 1547 1548 1548 1549 1550 1550 1551 1552 1552 1552 1553 1553 1553 1554 1554 1554 1555 1555 1555 1555 1555 1556 1556 1557 1557 1557 1557 1557 1557 1557 1557 1557 1557 1557 1557 1557 1557 1557 1557 1557 1557 1557 1556 1556 1555 1553 1553 1554 1554 1554 1554 1554 1554 1554 1554 1554 1554 1554 1554 1554 1554 1554 1554 1554 1554 1554 1554 1554 1554 1554 1554 1554 1554 1554 1554 1554 1553 1553 1553 1553 1553 1553 1553 1553 1553 1553 1553 1553 1553 1553 1553 1553 1553
1543 1544 1544 1545 1545 1545 1545 1546 1546 1546 1547 1547 1548 1548 1549 1549 1550 1551 1551 1552 1552 1553 1553 1553 1553 1553 1554 1554 1554 1554 1555 1555 1555 1556 1556 1556 1556 1556 1557 1557 1557 1557 1557 1556 1556 1556 1556 1556 1556 1556 1556 1556 1556 1556 1555 1554 1553 1553 1554 1554 1554 1554 1554 1554 1554 1554 1554 1554 1554 1554 1554 1554 1554 1554 1554 1554 1554 1554 1554 1554 1554 1554 1554 1554 1553 1553 1553 1553 1553 1553 1553 1553 1553 1553 1553 1553 1553 1553 1553 1553 1552 1552 1552
1543 1543 1543 1544 1544 1544 1544 1545 1545 1546 1546 1546 1547 1548 1548 1549 1549 1550 1551 1551 1552 1552 1552 1552 1553 1553 1553 1553 1553 1554 1554 1554 1555 1555 1555 1556 1556 1556 1556 1556 1556 1556 1556 1556 1556 1556 1556 1556 1555 1555 1555 1555 1555 1555 1555 1554 1553 1553 1553 1553 1553 1553 1553 1553 1553 1553 1553 1553 1553 1553 1553 1553 1553 1553 1554 1554 1554 1554 1554 1554 1554 1554 1553 1553 1553 1553 1553 1553 1553 1553 1553 1552 1552 1552 1552 1552 1552 1552 1552 1552 1552 1552 1552
1542 1542 1543 1543 1543 1543 1543 1544 1544 1545 1545 1545 1546 1547 1548 1548 1548 1549 1550 1550 1551 1551 1551 1551 1552 1552 1552 1552 1553 1553 1553 1554 1554 1554 1555 1555 1555 1555 1555 1555 1555 1555 1555 1555 1555 1555 1555 1555 1555 1555 1555 1555 1555 1555 1554 1554 1553 1553 1553 1553 1553 1553 1553 1553 1553 1553 1553 1553 1553 1553 1553 1553 1553 1553 1553 1553 1553 1553 1553 1553 1553 1553 1553 1553 1553 1553 1553 1553 1553 1552 1552 1552 1552 1552 1551 1551 1551 1551 1551 1551 1551 1551 1551
1541 1542 1542 1543 1543 1543 1543 1543 1543 1544 1544 1545 1545 1546 1547 1547 1548 1548 1548 1549 1549 1550 1550 1550 1550 1551 1551 1551 1552 1552 1553 1553 1553 1553 1554 1554 1554 1554 1554 1554 1554 1554 1555 1554 1554 1554 1554 1554 1554 1554 1554 1554 1554 1554 1554 1553 1553 1552 1552 1552 1553 1553 1552 1552 1552 1552 1552 1553 1553 1553 1553 1553 1553 1553 1553 1553 1553 1553 1553 1553 1553 1553 1553 1553 1553 1553 1552 1552 1552 1552 1552 1552 1551 1551 1551 1550 1550 1551 1551 1551 1551 1551 1551
1540 1541 1541 1542 1542 1542 1542 1542 1542 1543 1543 1544 1544 1545 1546 1546 1546 1547 1547 1548 1548 1548 1549 1549 1549 1550 1550 1551 1551 1551 1552 1552 1552 1553 1553 1553 1553 1553 1553 1553 1553 1553 1553 1553 1554 1554 1553 1553 1553 1553 1553 1553 1553 1553 1553 1553 1553 1552 1552 1552 1552 1552 1552 1552 1552 1552 1552 1552 1552 1552 1552 1552 1552 1552 1552 1553 1553 1553 1553 1553 1553 1553 1553 1552 1552 1552 1552 1552 1552 1552 1551 1551 1551 1550 1550 1550 1549 1550 1550 1550 1550 1550 1550
1539 1540 1540 1540 1541 1541 1541 1541 1541 1542 1542 1543 1543 1544 1544 1545 1545 1546 1546 1547 1547 1548 1548 1548 1548 1549 1549 1550 1550 1550 1550 1551 1552 1552 1552 1552 1552 1552 1553 1553 1553 1553 1553 1553 1553 1553 1553 1553 1552 1552 1552 1552 1552 1552 1552 1552 1552 1552 1551 1551 1551 1551 1551 1551 1551 1551 1551 1551 1551 1551 1552 1552 1552 1552 1552 1552 1552 1552 1552 1552 1552 1552 1552 1552 1552 1552 1551 1551 1551 1551 1551 1551 1550 1550 1550 1549 1549 1549 1549 1549 1549 1549 1549
1538 1539 1539 1539 1540 1540 1540 1540 1540 1541 1541 1541 1542 1542 1543 1544 1544 1544 1545 1545 1546 1546 1546 1547 1547 1548 1548 1549 1549 1549 1549 1550 1551 1551 1551 1551 1551 1551 1551 1552 1552 1552 1551 1552 1552 1552 1552 1552 1551 1551 1551 1551 1551 1551 1551 1551 1551 1551 1551 1551 1551 1551 1550 1550 1550 1550 1550 1551 1551 1551 1551 1551 1551 1551 1551 1551 1552 1552 1552 1552 1552 1552 1552 1551 1551 1551 1551 1551 1551 1551 1550 1550 1550 1550 1549 1549 1548 1548 1548 1548 1548 1548 1548
1537 1538 1538 1538 1538 1539 1539 1539 1539 1539 1540 1540 1541 1541 1542 1543 1543 1543 1543 1544 1545 1545 1545 1546 1546 1547 1547 1548 1548 1548 1548 1549 1549 1550 1549 1550 1550 1550 1550 1550 1551 1550 1550 1551 1551 1551 1551 1551 1551 1550 1550 1550 1550 1550 1550 1550 1550 1550 1550 1550 1550 1550 1550 1550 1549 1549 1549 1550 1550 1550 1550 1550 1550 1551 1551 1551 1551 1551 1551 1551 1551 1551 1551 1551 1551 1551 1550 1550 1550 1550 1550 1550 1549 1549 1549 1548 1548 1548 1547 1547 1547 1547 1547
1535 1536 1537 1537 1537 1538 1538 1538 1538 1538 1539 1539 1539 1540 1540 1541 1542 1542 1543 1543 1544 1544 1544 1544 1545 1546 1546 1546 1547 1547 1547 1548 1548 1548 1548 1549 1549 1549 1549 1549 1549 1549 1549 1549 1549 1550 1550 1550 1550 1549 1549 1549 1549 1549 1549 1549 1549 1549 1549 1549 1549 1549 1549 1549 1549 1549 1549 1549 1549 1549 1550 1550 1550 1550 1550 1550 1550 1550 1550 1550 1550 1550 1550 1550 1550 1550 1550 1550 1550 1549 1549 1549 1549 1549 1548 1548 1548 1547 1547 1547 1546 1546 1546
1534 1535 1535 1536 1536 1536 1537 1537 1537 1538 1538 1538 1538 1538 1539 1540 1540 1541 1541 1542 1543 1543 1543 1543 1544 1544 1545 1545 1545 1546 1546 1546 1547 1547 1548 1548 1548 1548 1548 1548 1548 1548 1548 1548 1548 1548 1548 1548 1548 1548 1548 1548 1548 1548 1548 1548 1548 1548 1548 1548 1548 1548 1549 1549 1549 1548 1548 1548 1548 1548 1549 1549 1549 1549 1549 1549 1549 1550 1550 1550 1550 1550 1550 1550 1549 1549 1549 1549 1549 1549 1549 1549 1548 1548 1548 1548 1548 1547 1547 1546 1546 1546 1545
1533 1533 1534 1534 1535 1535 1535 1536 1536 1536 1537 1537 1537 1537 1538 1538 1539 1540 1540 1541 1541 1542 1542 1542 1542 1543 1544 1544 1544 1544 1545 1545 1545 1546 1547 1547 1547 1546 1547 1547 1547 1547 1547 1547 1547 1547 1547 1547 1548 1548 1548 1548 1548 1547 1547 1547 1547 1547 1547 1547 1547 1548 1548 1548 1548 1548 1548 1548 1548 1548 1548 1548 1548 1548 1548 1549 1549 1549 1549 1549 1549 1549 1549 1549 1549 1549 1549 1548 1548 1548 1548 1548 1548 1548 1548 1547 1547 1547 1546 1546 1546 1545 1545
1531 1532 1533 1533 1533 1534 1534 1534 1535 1535 1535 1535 1536 1536 1536 1537 1538 1538 1539 1539 1540 1540 1540 1540 1541 1542 1543 1543 1543 1543 1543 1544 1544 1544 1545 1546 1545 1545 1545 1545 1546 1546 1546 1546 1546 1546 1546 1546 1546 1547 1547 1547 1547 1546 1546 1546 1546 1546 1546 1546 1546 1546 1547 1547 1547 1547 1547 1547 1547 1547 1547 1548 1548 1548 1548 1548 1548 1548 1548 1548 1548 1548 1548 1548 1548 1548 1548 1548 1548 1548 1548 1548 1547 1547 1547 1547 1546 1546 1546 1545 1545 1545 1544
1530 1531 1531 1532 1532 1533 1533 1533 1533 1533 1533 1533 1534 1535 1535 1536 1536 1537 1538 1538 1538 1539 1539 1538 1539 1540 1541 1541 1542 1542 1542 1543 1543 1543 1544 1544 1544 1544 1544 1544 1544 1544 1545 1545 1545 1545 1545 1545 1545 1545 1545 1545 1545 1545 1545 1545 1545 1545 1545 1545 1545 1545 1545 1546 1546 1546 1546 1546 1546 1546 1546 1547 1547 1547 1547 1547 1547 1547 1547 1547 1547 1547 1547 1547 1548 1548 1548 1547 1547 1547 1547 1547 1547 1546 1546 1546 1546 1545 1545 1545 1544 1544 1544
1529 1529 1530 1530 1531 1531 1532 1532 1532 1532 1532 1532 1533 1533 1534 1534 1535 1535 1536 1536 1537 1537 1537 1537 1537 1538 1539 1540 1540 1541 1541 1541 1541 1541 1542 1543 1543 1543 1543 1543 1543 1543 1544 1543 1543 1543 1543 1544 1544 1544 1544 1544 1544 1544 1544 1543 1543 1544 1544 1544 1543 1544 1544 1544 1545 1545 1545 1545 1545 1545 1545 1545 1546 1546 1546 1546 1546 1546 1546 1546 1546 1546 1547 1547 1547 1547 1547 1547 1547 1547 1546 1546 1546 1546 1545 1545 1545 1545 1544 1544 1544 1543 1543
1528 1528 1528 1529 1530 1530 1530 1531 1530 1530 1530 1530 1531 1532 1532 1533 1533 1534 1534 1535 1535 1535 1536 1536 1536 1537 1538 1538 1539 1539 1539 1539 1539 1539 1541 1542 1542 1542 1542 1542 1542 1542 1543 1542 1542 1542 1543 1543 1543 1543 1543 1543 1543 1543 1543 1543 1542 1543 1543 1543 1542 1543 1543 1543 1543 1543 1544 1544 1544 1544 1544 1544 1544 1544 1545 1545 1545 1545 1545 1545 1545 1546 1546 1546 1546 1546 1546 1546 1546 1546 1546 1546 1545 1545 1545 1544 1544 1544 1543 1543 1543 1543 1543
1526 1527 1527 1528 1528 1529 1529 1529 1529 1528 1528 1528 1529 1530 1531 1531 1532 1533 1533 1533 1533 1533 1534 1534 1534 1535 1536 1537 1537 1537 1538 1537 1537 1538 1539 1540 1541 1541 1541 1541 1541 1541 1541 1541 1541 1541 1541 1541 1541 1541 1541 1541 1542 1542 1542 1541 1541 1541 1541 1541 1541 1541 1542 1542 1542 1542 1543 1543 1543 1543 1543 1543 1543 1543 1543 1544 1544 1544 1544 1544 1544 1544 1545 1545 1545 1545 1545 1545 1545 1545 1545 1545 1544 1544 1544 1543 1543 1543 1543 1543 1542 1542 1542
1525 1525 1526 1526 1527 1527 1527 1528 1527 1527 1526 1527 1528 1528 1529 1530 1531 1531 1532 1532 1532 1532 1533 1532 1532 1533 1534 1534 1535 1535 1535 1535 1536 1537 1538 1539 1539 1540 1540 1540 1540 1540 1540 1540 1540 1540 1540 1540 1540 1540 1540 1540 1540 1540 1540 1540 1540 1540 1540 1540 1540 1540 1540 1541 1541 1541 1541 1542 1542 1542 1542 1543 1543 1543 1543 1543 1543 1543 1543 1543 1543 1543 1543 1543 1543 1544 1544 1544 1544 1544 1544 1543 1543 1543 1543 1543 1543 1542 1542 1542 1541 1541 1541
1523 1524 1524 1524 1525 1525 1526 1526 1526 1525 1525 1525 1526 1527 1528 1528 1529 1530 1530 1531 1530 1530 1531 1531 1531 1531 1532 1533 1533 1533 1533 1534 1534 1536 1537 1537 1538 1538 1539 1540 1540 1539 1539 1538 1538 1539 1539 1539 1538 1538 1538 1538 1538 1538 1539 1539 1539 1539 1539 1539 1539 1539 1539 1539 1539 1540 1540 1540 1541 1541 1541 1541 1541 1542 1542 1542 1542 1542 1542 1542 1542 1542 1542 1542 1542 1542 1542 1543 1543 1543 1543 1542 1542 1542 1542 1542 1542 1541 1541 1541 1540 1540 1540
1521 1522 1522 1523 1523 1523 1524 1524 1524 1524 1523 1524 1524 1525 1526 1527 1528 1528 1528 1529 1529 1529 1528 1528 1529 1529 1530 1531 1531 1531 1531 1532 1533 1534 1535 1536 1537 1538 1538 1539 1540 1540 1539 1538 1537 1536 1537 1537 1537 1537 1537 1537 1537 1537 1537 1537 1538 1538 1538 1538 1538 1538 1538 1538 1538 1538 1539 1539 1539 1539 1540 1540 1540 1540 1541 1541 1541 1541 1541 1541 1541 1541 1541 1540 1540 1540 1540 1541 1541 1541 1541 1541 1541 1541 1541 1541 1541 1540 1540 1540 1539 1539 1539
1520 1520 1521 1521 1521 1522 1522 1523 1523 1522 1522 1522 1522 1523 1524 1525 1525 1526 1526 1527 1527 1527 1527 1527 1527 1528 1528 1529 1529 1528 1529 1530 1531 1533 1534 1535 1536 1537 1537 1538 1538 1539 1539 1539 1537 1535 1534 1534 1535 1535 1535 1535 1535 1535 1535 1536 1536 1536 1536 1537 1537 1537 1537 1537 1537 1537 1538 1538 1538 1538 1538 1538 1539 1539 1539 1539 1540 1540 1540 1540 1540 1539 1539 1539 1539 1539 1539 1539 1539 1539 1539 1539 1539 1539 1539 1539 1539 1539 1539 1539 1538 1538 1538
1518 1518 1519 1519 1519 1520 1520 1520 1521 1521 1520 1520 1520 1521 1522 1523 1523 1524 1524 1524 1525 1525 1524 1524 1525 1526 1526 1527 1527 1526 1527 1528 1529 1531 1532 1533 1534 1535 1535 1536 1536 1537 1538 1538 1537 1536 1533 1533 1533 1533 1533 1533 1534 1534 1534 1534 1534 1535 1535 1535 1535 1536 1536 1536 1536 1536 1537 1537 1537 1537 1537 1537 1537 1538 1538 1538 1538 1538 1538 1538 1538 1538 1538 1538 1538 1538 1538 1538 1538 1538 1538 1538 1538 1538 1538 1538 1538 1538 1538 1538 1538 1537 1537
1516 1516 1517 1517 1518 1518 1518 1518 1519 1519 1519 1518 1518 1519 1519 1520 1521 1521 1522 1522 1522 1523 1523 1523 1523 1523 1524 1524 1524 1524 1525 1526 1527 1529 1530 1531 1531 1532 1533 1534 1535 1536 1536 1536 1536 1535 1534 1532 1532 1532 1531 1532 1532 1533 1533 1533 1533 1533 1533 1533 1534 1534 1534 1534 1534 1535 1535 1536 1536 1535 1535 1536 1536 1536 1537 1537 1537 1537 1537 1537 1537 1537 1537 1537 1537 1537 1536 1536 1536 1536 1536 1537 1537 1537 1537 1537 1537 1537 1537 1536 1536 1536 1536
1513 1514 1515 1515 1515 1516 1516 1517 1517 1517 1517 1517 1516 1517 1517 1518 1519 1519 1520 1520 1520 1520 1520 1520 1520 1521 1521 1522 1522 1522 1523 1523 1525 1526 1528 1528 1529 1529 1530 1532 1533 1534 1534 1534 1533 1533 1533 1532 1531 1531 1530 1530 1531 1531 1531 1531 1531 1532 1532 1532 1532 1533 1533 1533 1533 1533 1534 1534 1534 1534 1534 1534 1534 1535 1535 1536 1536 1536 1536 1536 1536 1536 1536 1536 1536 1535 1535 1535 1535 1535 1534 1535 1535 1536 1536 1535 1535 1535 1535 1535 1535 1535 1534
1512 1512 1513 1513 1513 1514 1514 1515 1515 1515 1515 1515 1514 1514 1515 1516 1517 1518 1518 1518 1518 1518 1518 1518 1518 1518 1518 1519 1520 1521 1521 1521 1522 1523 1525 1526 1527 1527 1528 1529 1530 1530 1531 1531 1531 1532 1531 1530 1530 1531 1529 1528 1529 1530 1530 1530 1530 1530 1530 1530 1531 1531 1531 1531 1532 1532 1533 1533 1533 1533 1533 1533 1533 1533 1534 1534 1534 1534 1534 1535 1535 1535 1535 1535 1534 1534 1534 1533 1533 1533 1533 1533 1533 1534 1534 1534 1534 1534 1533 1533 1533 1533 1533
1510 1510 1510 1511 1511 1512 1512 1513 1513 1513 1513 1513 1512 1513 1513 1514 1515 1516 1516 1516 1516 1516 1516 1516 1516 1516 1516 1517 1518 1518 1518 1519 1519 1521 1522 1524 1524 1525 1525 1526 1526 1527 1527 1528 1529 1530 1529 1529 1529 1530 1530 1528 1528 1528 1528 1528 1528 1528 1528 1529 1529 1529 1530 1530 1530 1531 1531 1531 1531 1531 1531 1531 1532 1532 1533 1533 1533 1533 1533 1533 1533 1533 1533 1533 1533 1533 1533 1532 1532 1532 1531 1532 1532 1532 1532 1532 1532 1532 1532 1532 1532 1532 1531
1508 1508 1508 1509 1509 1510 1510 1510 1511 1511 1511 1511 1510 1511 1511 1512 1513 1513 1514 1514 1514 1514 1514 1514 1514 1514 1514 1515 1515 1516 1516 1516 1517 1517 1519 1521 1522 1522 1523 1523 1524 1525 1526 1527 1528 1528 1528 1528 1528 1528 1529 1528 1527 1527 1527 1527 1527 1527 1527 1527 1528 1528 1528 1528 1529 1529 1529 1529 1530 1530 1530 1530 1530 1530 1531 1531 1532 1532 1532 1532 1532 1532 1532 1532 1532 1531 1531 1531 1531 1531 1530 1530 1531 1531 1531 1531 1531 1531 1530 1530 1530 1530 1530
1506 1506 1507 1507 1508 1508 1508 1508 1508 1508 1508 1508 1508 1508 1509 1510 1511 1512 1512 1512 1512 1512 1512 1512 1512 1512 1512 1512 1513 1513 1513 1514 1514 1514 1515 1517 1518 1519 1520 1521 1522 1523 1524 1524 1525 1526 1526 1526 1526 1527 1528 1527 1527 1526 1525 1525 1525 1526 1526 1526 1526 1526 1527 1527 1527 1527 1528 1528 1528 1528 1528 1528 1528 1529 1529 1530 1530 1530 1530 1530 1530 1530 1530 1530 1530 1530 1529 1530 1530 1529 1529 1529 1529 1529 1529 1529 1529 1529 1529 1529 1528 1528 1528
1504 1504 1505 1505 1506 1506 1507 1507 1506 1506 1506 1506 1506 1506 1507 1508 1508 1509 1510 1510 1510 1510 1509 1509 1510 1510 1510 1510 1510 1510 1511 1512 1512 1511 1512 1513 1514 1516 1517 1518 1519 1520 1521 1522 1523 1523 1523 1524 1524 1525 1525 1525 1526 1526 1525 1524 1523 1524 1524 1524 1524 1524 1525 1525 1525 1526 1526 1526 1527 1527 1527 1527 1527 1527 1528 1528 1528 1528 1528 1528 1529 1529 1529 1529 1528 1528 1528 1528 1528 1528 1528 1528 1528 1528 1528 1528 1528 1528 1528 1527 1527 1527 1527